Location: ??????
(55.7522°N, 37.6156°E)
Time: 18:30:33
(UTC+00:00)

Cosmos 2263 Rocket - Pass Details

Date: 14 June 2025
Orbit: 821 x 848 km, 71.0° (Epoch: 12 July)

Event Time Altitude Azimuth Distance (km) Brightness Sun altitude
Rises 21:45:08 0° 250° (WSW) 3,403 5.1 -10.9°
Reaches altitude 10° 21:47:49 10° 260° (W) 2,473 4.5 -10.8°
Maximum altitude 21:52:56 33° 324° (NW) 1,390 3.9 -10.8°
Drops below altitude 10° 21:58:05 10° 28° (NNE) 2,487 5.9 -10.7°
Sets 22:00:48 0° 38° (NE) 3,424 6.5 -10.7°
